Chehalis, WA

8:37 PM PDT on June 22, 2017 (GMT -0700)
Chehalis-Centralia

Weather History for KCLS - November, 2013

Change the Weather History Date:

Sunday, November 3, 2013

  Actual Average (KTDO) Record (KTDO)
Temperature  
Mean Temperature 44 °F -  
Max Temperature 53 °F 56 °F 69 °F (1981)
Min Temperature 35 °F 41 °F 14 °F (2003)
Degree Days  
Heating Degree Days 21    
Moisture  
Dew Point 38 °F    
Average Humidity 80    
Maximum Humidity 100    
Minimum Humidity 51    
Precipitation  
Precipitation 0.00 in - - ()
Sea Level Pressure  
Sea Level Pressure 30.08 in    
Wind  
Wind Speed 5 mph (SW)    
Max Wind Speed 10 mph    
Max Gust Speed 18 mph    
Visibility 9 miles    
Events Rain    
Averages and records for this station are not official NWS values.
T = Trace of Precipitation, MM = Missing Value Source: NWS Daily Summary

Daily Weather History Graph

Daily Weather History Graph

Search for Another Location

Airport or City:

Trip Planner

Search our weather history database for the weather conditions in past years. The results will help you decide how hot, cold, wet, or windy it might be!

Date:

Astronomy

Nov. 03, 2013 Rise Set
Actual Time 6:57 AM PST 4:52 PM PST
Civil Twilight 6:25 AM PST 5:24 PM PST
Nautical Twilight 5:49 AM PST 6:00 PM PST
Astronomical Twilight 5:14 AM PST 6:35 PM PST
Moon 7:08 AM PST (11/3) 5:09 PM PST (11/3)
Length of Visible Light 10h 59m
Length of Day
9h 55m
New Moon, 0% of the Moon is Illuminated
Nov 3
New Moon
Nov 9
First Quarter
Nov 17
Full
Nov 25
Last Quarter
Dec 2
New

Hourly Weather History & Observations

Time (PST) Temp. Windchill Dew Point Humidity Pressure Visibility Wind Dir Wind Speed Gust Speed Precip Events Conditions
12:15 AM 42.8 °F 38.0 °F 39.2 °F 87% 29.99 in 10.0 mi SSW 8.1 mph - N/A   Unknown
12:35 AM 42.8 °F 39.3 °F 39.2 °F 87% 29.99 in 10.0 mi SSW 5.8 mph - N/A   Overcast
12:55 AM 42.8 °F 40.1 °F 39.2 °F 87% 30.00 in 10.0 mi SSW 4.6 mph - N/A   Overcast
1:15 AM 42.8 °F 40.1 °F 39.2 °F 87% 30.01 in 10.0 mi SSW 4.6 mph - N/A   Overcast
1:35 AM 42.8 °F 38.6 °F 39.2 °F 87% 30.01 in 10.0 mi SW 6.9 mph - N/A   Mostly Cloudy
1:55 AM 42.8 °F 38.0 °F 39.2 °F 87% 30.02 in 9.0 mi SW 8.1 mph - N/A Rain Light Rain
1:15 AM 42.8 °F 40.1 °F 39.2 °F 87% 30.02 in 10.0 mi SW 4.6 mph - N/A   Unknown
1:35 AM 42.8 °F 40.1 °F 39.2 °F 87% 30.02 in 10.0 mi SW 4.6 mph - N/A   Unknown
1:55 AM 42.8 °F 41.1 °F 39.2 °F 87% 30.03 in 10.0 mi SSW 3.5 mph - N/A   Unknown
2:15 AM 41.0 °F 38.0 °F 39.2 °F 93% 30.03 in 10.0 mi SSW 4.6 mph - N/A   Mostly Cloudy
2:35 AM 39.2 °F 35.9 °F 37.4 °F 93% 30.03 in 10.0 mi SSW 4.6 mph - N/A   Mostly Cloudy
2:55 AM 39.2 °F 35.9 °F 39.2 °F 100% 30.03 in 10.0 mi SSW 4.6 mph - N/A   Mostly Cloudy
3:15 AM 39.2 °F 37.0 °F 39.2 °F 100% 30.03 in 10.0 mi SSW 3.5 mph - N/A   Mostly Cloudy
3:35 AM 41.0 °F 37.1 °F 39.2 °F 93% 30.03 in 10.0 mi South 5.8 mph - N/A   Mostly Cloudy
3:55 AM 39.2 °F 37.0 °F 39.2 °F 100% 30.04 in 10.0 mi SW 3.5 mph - N/A   Mostly Cloudy
4:15 AM 39.2 °F 35.9 °F 37.4 °F 93% 30.04 in 10.0 mi SW 4.6 mph - N/A   Overcast
4:35 AM 39.2 °F 37.0 °F 37.4 °F 93% 30.05 in 10.0 mi SW 3.5 mph - N/A   Unknown
4:55 AM 39.2 °F 37.0 °F 39.2 °F 100% 30.05 in 10.0 mi SW 3.5 mph - N/A   Unknown
5:15 AM 39.2 °F 35.9 °F 39.2 °F 100% 30.05 in 10.0 mi SW 4.6 mph - N/A   Overcast
5:35 AM 39.2 °F 35.9 °F 39.2 °F 100% 30.06 in 10.0 mi SSW 4.6 mph - N/A   Overcast
5:55 AM 41.0 °F 38.0 °F 39.2 °F 93% 30.06 in 10.0 mi South 4.6 mph - N/A   Overcast
6:15 AM 41.0 °F 39.0 °F 39.2 °F 93% 30.07 in 8.0 mi SW 3.5 mph - N/A   Overcast
6:35 AM 41.0 °F 39.0 °F 39.2 °F 93% 30.07 in 10.0 mi SSW 3.5 mph - N/A   Overcast
6:55 AM 41.0 °F 37.1 °F 39.2 °F 93% 30.07 in 10.0 mi South 5.8 mph - N/A   Mostly Cloudy
7:15 AM 41.0 °F 39.0 °F 39.2 °F 93% 30.08 in 10.0 mi SW 3.5 mph - N/A   Mostly Cloudy
7:35 AM 41.0 °F 38.0 °F 39.2 °F 93% 30.08 in 10.0 mi SSW 4.6 mph - N/A   Partly Cloudy
7:55 AM 44.6 °F 40.7 °F 39.2 °F 81% 30.09 in 10.0 mi South 6.9 mph - N/A   Clear
8:15 AM 46.4 °F 42.9 °F 39.2 °F 76% 30.09 in 10.0 mi SSW 6.9 mph - N/A   Clear
8:35 AM 46.4 °F 42.9 °F 39.2 °F 76% 30.09 in 10.0 mi South 6.9 mph - N/A   Clear
8:55 AM 48.2 °F - 41.0 °F 76% 30.09 in 10.0 mi SW 4.6 mph - N/A   Clear
9:15 AM 48.2 °F - 41.0 °F 76% 30.09 in 10.0 mi SW 6.9 mph - N/A   Clear
9:35 AM 48.2 °F - 39.2 °F 71% 30.09 in 10.0 mi SW 6.9 mph - N/A   Clear
9:55 AM 50.0 °F - 39.2 °F 66% 30.10 in 10.0 mi NW 5.8 mph - N/A   Partly Cloudy
10:15 AM 50.0 °F - 37.4 °F 62% 30.10 in 5.0 mi WNW 6.9 mph 17.3 mph N/A   Haze
10:35 AM 50.0 °F - 37.4 °F 62% 30.10 in 10.0 mi NW 5.8 mph - N/A   Scattered Clouds
10:55 AM 50.0 °F - 37.4 °F 62% 30.11 in 10.0 mi West 4.6 mph - N/A   Mostly Cloudy
11:15 AM 50.0 °F - 37.4 °F 62% 30.10 in 8.0 mi West 8.1 mph - N/A   Scattered Clouds
11:35 AM 51.8 °F - 37.4 °F 58% 30.10 in 10.0 mi West 5.8 mph - N/A   Clear
11:55 AM 53.6 °F - 35.6 °F 51% 30.09 in 8.0 mi WSW 9.2 mph 16.1 mph N/A   Scattered Clouds
12:15 PM 53.6 °F - 37.4 °F 54% 30.09 in 7.0 mi WSW 8.1 mph 18.4 mph N/A   Partly Cloudy
12:35 PM 51.8 °F - 35.6 °F 54% 30.09 in 7.0 mi West 4.6 mph - N/A   Partly Cloudy
12:55 PM 53.6 °F - 37.4 °F 54% 30.09 in 8.0 mi SW 10.4 mph 16.1 mph N/A   Partly Cloudy
1:15 PM 53.6 °F - 39.2 °F 58% 30.09 in 5.0 mi SW 8.1 mph - N/A   Haze
1:35 PM 51.8 °F - 39.2 °F 62% 30.09 in 9.0 mi SW 6.9 mph 16.1 mph N/A   Partly Cloudy
1:55 PM 51.8 °F - 39.2 °F 62% 30.09 in 10.0 mi WSW 4.6 mph - N/A   Partly Cloudy
2:15 PM 51.8 °F - 39.2 °F 62% 30.10 in 10.0 mi WSW 6.9 mph - N/A   Clear
2:35 PM 53.6 °F - 39.2 °F 58% 30.10 in 5.0 mi West 6.9 mph - N/A   Haze
2:55 PM 53.6 °F - 35.6 °F 51% 30.10 in 10.0 mi WNW 6.9 mph - N/A   Clear
3:15 PM 51.8 °F - 37.4 °F 58% 30.10 in 10.0 mi West 5.8 mph - N/A   Clear
3:35 PM 50.0 °F - 35.6 °F 58% 30.09 in 10.0 mi West 5.8 mph - N/A   Partly Cloudy
3:55 PM 50.0 °F - 35.6 °F 58% 30.09 in 10.0 mi West 4.6 mph - N/A   Partly Cloudy
4:15 PM 48.2 °F - 37.4 °F 66% 30.10 in 7.0 mi West 4.6 mph - N/A   Clear
4:35 PM 48.2 °F - 37.4 °F 66% 30.10 in 5.0 mi West 3.5 mph - N/A   Haze
4:55 PM 46.4 °F 45.2 °F 37.4 °F 71% 30.10 in 5.0 mi West 3.5 mph - N/A   Haze
5:15 PM 46.4 °F - 37.4 °F 71% 30.10 in 7.0 mi Calm Calm - N/A   Clear
5:35 PM 44.6 °F 43.1 °F 37.4 °F 76% 30.10 in 10.0 mi SW 3.5 mph - N/A   Unknown
5:55 PM 42.8 °F 40.1 °F 37.4 °F 81% 30.10 in 10.0 mi SW 4.6 mph - N/A   Unknown
6:15 PM 41.0 °F - 37.4 °F 87% 30.11 in 10.0 mi Calm Calm - N/A   Unknown
6:35 PM 41.0 °F - 37.4 °F 87% 30.11 in 9.0 mi Calm Calm - N/A   Clear
6:55 PM 42.8 °F 40.1 °F 37.4 °F 81% 30.11 in 10.0 mi SSW 4.6 mph - N/A   Clear
7:15 PM 42.8 °F 40.1 °F 39.2 °F 87% 30.12 in 10.0 mi SSW 4.6 mph - N/A   Clear
7:35 PM 42.8 °F 40.1 °F 37.4 °F 81% 30.12 in 9.0 mi South 4.6 mph - N/A   Clear
7:55 PM 41.0 °F 37.1 °F 37.4 °F 87% 30.12 in 8.0 mi South 5.8 mph - N/A   Unknown
8:15 PM 41.0 °F 38.0 °F 37.4 °F 87% 30.12 in 10.0 mi South 4.6 mph - N/A   Unknown
8:35 PM 39.2 °F 37.0 °F 37.4 °F 93% 30.12 in 10.0 mi SSW 3.5 mph - N/A   Unknown
8:55 PM 39.2 °F - 37.4 °F 93% 30.13 in 5.0 mi Calm Calm - N/A   Mist
9:15 PM 37.4 °F - 37.4 °F 100% 30.13 in 10.0 mi Calm Calm - N/A   Clear
9:35 PM 37.4 °F 34.9 °F 35.6 °F 93% 30.14 in 10.0 mi SW 3.5 mph - N/A   Clear
9:55 PM 35.6 °F 32.8 °F 35.6 °F 100% 30.14 in 9.0 mi SW 3.5 mph - N/A   Unknown
10:15 PM 35.6 °F 31.7 °F 35.6 °F 100% 30.14 in 10.0 mi SSW 4.6 mph - N/A   Clear
10:35 PM 35.6 °F 31.7 °F 35.6 °F 100% 30.14 in 10.0 mi SW 4.6 mph - N/A   Unknown
10:55 PM 35.6 °F 31.7 °F 35.6 °F 100% 30.14 in 10.0 mi SSW 4.6 mph - N/A   Unknown